www.pogodaiklimat.ru

Погода и климат >> Архив погоды >> Индонезия >> Аэропорт Султан Хасануддин


ПОГОДА в Аэропорту Султана Хасануддин

  • Прогноз погоды в Аэропорту Султана Хасануддин
  • Монитор погоды в Аэропорту Султана Хасануддин

АРХИВ ПОГОДЫ в Аэропорту Султана Хасануддин

Время (UTC), дата Ветер
(напр.,м/с)
 
Видим.   Явления Облачность Т
(С)
Тd
(С)
f
(%)
Тe
(С)
Тes
(С)
Комфортность P
(гПа)
Po
(гПа)
Тmin
(С)
Tmax
(С)
R
(мм)
R24
(мм)
S
(см)
21 11.09 Ю 6 8000 м 4/1 600 м
[Cu hum Ac trans Ci fib]
+20.8 +17.1 79 +24 +24 комфорт 1013.7 1012.0
00 12.09 ЮВ 2 10 км 1/1 600 м
[Cu hum Ci fib]
+26.2 +23.8 87 +36 +41 очень
душно
1014.9 1013.2 +20.2
03 12.09 10 км н/о +32.8 +15.2 35 +35 +50 душно 1013.9 1012.2
06 12.09 З 4 10 км 3/1 600 м
[Cu med, cong Ac trans Ci fib]
+32.0 +17.0 41 +36 +44 очень
душно
1011.3 1009.7
09 12.09 З 2 10 км 3/1 600 м
[Cu med, cong Ac trans]
+31.1 +17.3 44 +35 +36 очень
душно
1010.8 1009.1
12 12.09 СВ 1 8000 м 3/1 600 м
[Cu hum Ac trans Ci fib]
+27.2 +18.1 58 +32 +32 очень
душно
1012.9 1011.2 +32.8
15 12.09 В 3 8000 м 3/1 600 м
[Cu hum Ac trans Ci fib]
+23.8 +15.1 58 +27 +27 жарко 1013.6 1011.9
18 12.09 ЮВ 1 8000 м 3/1 600 м
[Cu hum Ac trans Ci fib]
+22.0 +14.5 62 +25 +25 комфорт 1012.5 1010.8
21 12.09 ЮЗ 1 8000 м 3/1 600 м
[Cu hum Ac trans Ci fib]
+20.4 +14.6 69 +24 +24 комфорт 1012.9 1011.2
00 13.09 В 4 10 км 1/1 600 м
[Cu hum Ci fib]
+27.4 +18.7 59 +32 +36 очень
душно
1014.2 1012.5 +19.8
03 13.09 СВ 3 10 км 1/1 600 м
[Cu hum Ci fib]
+33.6 +16.7 36 +36 +53 опасность
солнечного
удара
1013.2 1011.5
06 13.09 З 3 10 км 1/1 600 м
[Cu hum]
+32.3 +18.3 43 +37 +49 очень
душно
1010.4 1008.7
09 13.09 З 3 10 км 1/1 600 м
[Cu hum Ci fib]
+31.0 +18.9 49 +36 +38 очень
душно
1009.9 1008.3
12 13.09 СВ 2 8000 м 3/1 600 м
[Cu hum Ac trans Ci fib]
+27.1 +21.8 73 +35 +35 очень
душно
1011.8 1010.2 +34.5
15 13.09 Ю 1 8000 м 3/1 600 м
[Cu hum Ac trans Ci fib]
+23.8 +17.0 66 +28 +28 душно 1013.0 1011.3
18 13.09 Ю 1 8000 м 3/1 600 м
[Cu hum Ac trans Ci fib]
+22.0 +17.4 75 +26 +26 душно 1012.3 1010.6
21 13.09 штиль 0 8000 м 3/1 600 м
[Cu hum Ac trans Ci fib]
+20.2 +16.8 81 +23 +23 комфорт 1012.6 1010.9
00 14.09 ЮЗ 1 10 км 3/1 600 м
[Cu hum Ac trans Ci fib]
+25.0 +17.6 64 +29 +34 душно 1013.9 1012.3 +20.0
03 14.09 СВ 5 10 км 1/1 600 м
[Cu hum Ac trans]
+33.2 +16.8 38 +36 +46 очень
душно
1012.8 1011.1
06 14.09 З 3 10 км 1/1 600 м
[Cu hum Ac trans Ci fib]
+33.8 +18.6 41 +39 +52 опасность
солнечного
удара
1009.7 1008.0
09 14.09 З 2 10 км 1/1 600 м
[Cu med, cong Ac trans Ci fib]
+31.6 +18.0 44 +36 +37 очень
душно
1009.8 1008.2
12 14.09 СВ 2 8000 м 1/1 600 м
[Cu hum Ci fib]
+27.6 +17.1 53 +32 +32 очень
душно
1012.0 1010.3 +35.2
15 14.09 Ю 1 8000 м 1/1 600 м
[Cu hum Ci fib]
+24.2 +16.4 62 +28 +28 душно 1012.4 1010.7
18 14.09 ЮВ 2 8000 м 1/1 600 м
[Cu hum Ci fib]
+23.0 +16.8 68 +28 +28 душно 1011.3 1009.6
21 14.09 Ю 1 8000 м 1/1 600 м
[Cu hum Ci fib]
+20.8 +17.1 79 +26 +26 душно 1011.4 1009.7
00 15.09 СВ 2 10 км 1/1 600 м
[Cu hum Ci fib]
+26.6 +18.4 61 +31 +37 душно 1012.8 1011.1 +20.2
03 15.09 СВ 3 10 км 1/1 600 м
[Cu hum Ci fib]
+34.0 +18.1 39 +38 +53 опасность
солнечного
удара
1011.4 1009.8
06 15.09 З 4 10 км 1/1 600 м
[Cu hum Ci fib]
+33.6 +20.5 46 +40 +51 опасность
солнечного
удара
1008.8 1007.1
09 15.09 СЗ 2 10 км 1/1 600 м
[Cu hum Ci fib]
+32.6 +20.5 49 +39 +41 очень
душно
1008.5 1006.8
12 15.09 СВ 2 8000 м 1/1 600 м
[Cu hum Ci fib]
+28.2 +17.8 53 +33 +33 очень
душно
1010.8 1009.1 +35.0
15 15.09 ЮВ 2 8000 м 4/1 600 м
[Cu hum Ac trans Ci fib]
+25.3 +18.5 66 +30 +30 душно 1011.4 1009.8
18 15.09 В 2 8000 м 3/1 600 м
[Cu hum Ac trans Ci fib]
+23.0 +17.1 69 +28 +28 душно 1010.6 1009.0
21 15.09 В 4 8000 м 4/1 600 м
[Cu hum Ac trans Ci fib]
+24.0 +18.3 70 +28 +28 душно 1010.8 1009.1
00 16.09 штиль 0 10 км 1/1 600 м
[Cu hum Ci fib]
+29.9 +18.3 50 +35 +41 очень
душно
1012.0 1010.3 +21.3
03 16.09 СВ 4 10 км 1/1 600 м
[Cu hum Ci fib]
+34.6 +18.3 38 +39 +51 опасность
солнечного
удара
1011.0 1009.3
06 16.09 З 4 10 км 1/1 600 м
[Cu med, cong Ci fib]
+32.3 +20.2 49 +39 +50 очень
душно
1008.8 1007.1
09 16.09 З 2 10 км 1/1 600 м
[Cu med, cong Ci fib]
+31.0 +21.5 57 +39 +40 очень
душно
1008.4 1006.7
12 16.09 СВ 1 8000 м 1/1 600 м
[Cu hum Ci fib]
+27.2 +23.7 81 +37 +37 очень
душно
1010.6 1009.0 +35.0
15 16.09 В 1 8000 м 1/1 600 м
[Cu hum Ci fib]
+25.2 +22.2 83 +33 +33 очень
душно
1011.5 1009.8
18 16.09 З 1 8000 м 1/1 600 м
[Cu hum Ci fib]
+23.0 +20.1 84 +30 +30 очень
душно
1011.0 1009.3
21 16.09 ЮВ 1 8000 м 1/1 600 м
[Cu hum Ci fib]
+21.2 +17.6 80 +25 +25 комфорт 1011.0 1009.3
00 17.09 В 2 10 км 3/1 600 м
[Cu med, cong Ci fib]
+26.9 +19.7 65 +33 +38 очень
душно
1013.5 1011.8 +21.0
03 17.09 СЗ 3 10 км 4/1 600 м
[Cu med, cong Ac trans Ci fib]
+33.0 +21.2 50 +41 +55 опасность
перегрева
1012.1 1010.4
06 17.09 З 3 10 км 5/3 600 м
[Cu med, cong Ac trans Ci fib]
+33.3 +21.0 49 +41 +49 опасность
перегрева
1009.5 1007.8
09 17.09 СЗ 2 10 км 5/1 600 м
[Cu med, cong Ac lent Ci fib]
+32.5 +19.9 47 +38 +40 очень
душно
1009.4 1007.8
12 17.09 В 1 8000 м 3/1 600 м
[Sc diur, vesp Ac lent Ci fib]
+28.9 +22.6 69 +38 +38 очень
душно
1011.5 1009.8 +34.4
15 17.09 ЮВ 2 8000 м 3/1 600 м
[Sc diur, vesp Ac lent Ci fib]
+26.0 +20.3 71 +32 +32 очень
душно
1012.7 1011.0
18 17.09 Ю 1 8000 м 1/1 600 м
[Sc diur, vesp Ci fib]
+24.2 +19.7 76 +29 +29 душно 1011.7 1010.0
21 17.09 ЮЗ 2 8000 м 1/1 600 м
[Sc diur, vesp Ci fib]
+22.7 +19.5 82 +29 +29 очень
душно
1012.8 1011.1
00 18.09 В 2 10 км 1/1 600 м
[Cu hum Ci fib]
+26.8 +19.7 65 +33 +37 очень
душно
1013.9 1012.3 +22.0
03 18.09 СВ 4 10 км 3/3 600 м
[Cu med, cong Ac trans Ci fib]
+34.2 +19.1 41 +39 +49 очень
душно
1012.3 1010.6
06 18.09 З 4 10 км 4/3 600 м
[Cu med, cong Ac lent Ci fib]
+33.8 +20.6 46 +41 +49 опасность
перегрева
1009.7 1008.0
09 18.09 З 2 10 км 4/3 600 м
[Cu med, cong Ac lent Ci fib]
+32.7 +20.7 49 +40 +41 очень
душно
1009.7 1008.0
12 18.09 СВ 2 8000 м 3/1 600 м
[Cu med, cong Ac trans]
+28.8 +18.9 55 +34 +34 очень
душно
1011.9 1010.0 +35.0
15 18.09 штиль 0 8000 м 3/1 600 м
[Cu med, cong Ci fib]
+25.8 +18.9 66 +31 +31 очень
душно
1012.7 1011.0

 

Местоположение метеостанции Аэропорт Султан Хасануддин (Индонезия): широта -5.07 долгота 119.55 высота над уровнем моря 14 м.

В архиве по умолчанию представлена погода в Аэропорту Султана Хасануддин за последнюю неделю. Архивные данные за месяц целиком и за предыдущие месяцы, начиная с января 2011 года, Вы можете получить, выбрав интересующий диапазон дат из раскрывающегося списка и нажав кнопку "Ввод!".


*Определитесь, кто Вы:
робот инопланетянин человек

Внимание! Время в таблицах - всемирное. Для получения местного времени необходимо прибавить поправку, которая равна 8 ч.

Смотрите также архив погоды в соседних городах и на ближайших метеорологических станциях:

Погода в Колаке (Индонезия) (236 км)
Погода в Маджене (Индонезия) (292 км)
Погода в Масамбе (Индонезия) (294 км)
Погода в Кендари (Индонезия) (337 км)
Погода в Бау-Бау (Индонезия) (342 км)
Погода в Биме (Индонезия) (398 км)
Погода в Рутенге (Индонезия) (408 км)
Погода в Котабару (Индонезия) (414 км)
Погода в Посо (Индонезия) (431 км)
Погода в Сумбава-Бесаре (Индонезия) (448 км)

Пояснения к столбцам:

Ветер - указаны скорость ветра в м/с - средняя за 10 мин, порывы в срок и между сроками (в фигурных скобках) и направление, откуда дует ветер: С - северный, СВ - северо-восточный, В - восточный, ЮВ - юго-восточный, Ю - южный, ЮЗ - юго-западный, З - западный, СЗ - северо-западный.
Видимость - горизонтальная дальность видимости в метрах или километрах. При видимости от 1 до 10 км при отсутствии осадков обычно наблюдается дымка, при ухудшении видимости до 1 км и менее - туман. В сухую погоду видимость может ухудшаться дымом, пылью или мглою.
Явления - указаны атмосферные явления, наблюдавшиеся в срок или в последний час перед сроком; фигурными скобками обозначены явления, наблюдавшиеся между сроками (за 1-3 часа до срока); квадратными скобками обозначены град или гололедные отложения с указанием их диаметра в мм.
Облачность - указаны через наклонную черту общая и нижняя облачность в баллах и высота нижней границы облаков в метрах; квадратными скобками обозначены формы облаков: Ci - перистые, Cs - перисто-слоистые, Cc - перисто-кучевые, Ac - высококучевые, As - высокослоистые, Sc - слоисто-кучевые, Ns - слоисто-дождевые, Cu - кучевые, Cb - кучево-дождевые. Подробнее классификацию облаков см. в Атласе облаков (PDF).
T - Температура воздуха - температура, измеренная на высоте 2 м над землей.
Td - Температура точки росы - температура, при понижении до которой содержащийся в воздухе водяной пар достигнет насыщения.
f - Относительная влажность воздуха - влажноcть воздуха, измеренная на высоте 2 м над землей.
Te - Эффективная температура - температура, которую ощущает одетый по сезону человек в тени. Характеристика душности погоды. При расчете учитывается влияние влажности воздуха и скорости ветра на теплоощущения человека.
Tes - Эффективная температура на солнце - температура, которую ощущает человек, с поправкой на солнечный нагрев. Характеристика знойности погоды. Зависит от высоты солнца над горизонтом, облачности и скорости ветра. Ночью, в пасмурную погоду, а также при ветре 12 м/с и более поправка равна нулю.
P - Атмосферное давление - приведенное к уровню моря атмосферное давление.
Po - Атмосферное давление - измеренное на уровне метеостанции атмосферное давление.
Tmin - Минимальная температура - минимум температуры воздуха на высоте 2 м над землей.
Tmax - Максимальная температура - максимум температуры воздуха на высоте 2 м над землей.
R - Количество осадков - Количество выпавших осадков за период времени, мм. При наведении курсора мыши на число - период времени, за который выпало указанное количество осадков.
R24 - Количество осадков - Количество выпавших осадков за 24 часа, мм.
S - Снежный покров - Высота снежного покрова, см. При наведении курсора мыши на число - состояние снежного покрова и степень покрытия местности в баллах.